When you browse on this site, cookies collect data to enhance your experience and personalize the content and advertising you see.
Visit our Privacy Policy to learn more. By continuing to use the site, you agree to this use of cookies and data.
  • In France
  • List of Countries
  • For 7 days
  • Water Temperature
  • Satellite Maps
  • Weather Map
  • Weather Widgets
  • user-avatar
    Login

    Hourly Weather Durres

    Today, 18 December, Tuesday

    Time Temperature Precipitation Wind Pressure Humidity
    00:00 +4°C° 1.5 mm 8 mps 759 mmHg 82%
    01:00 +4°C° 0 mm 7 mps 759 mmHg 86%
    02:00 +4°C° 0.4 mm 8 mps 759 mmHg 84%
    03:00 +4°C° 0.4 mm 8 mps 760 mmHg 82%
    04:00 +2°C° 0.4 mm 8 mps 760 mmHg 80%
    05:00 +2°C° 0.1 mm 8 mps 760 mmHg 80%
    06:00 +2°C° 0.1 mm 8 mps 761 mmHg 80%
    07:00 +2°C° 0 mm 8 mps 761 mmHg 81%
    08:00 +2°C° 0 mm 8 mps 761 mmHg 79%
    09:00 +4°C° 0 mm 8 mps 762 mmHg 77%
    10:00 +4°C° 0 mm 8 mps 762 mmHg 75%
    11:00 +5°C° 0 mm 8 mps 762 mmHg 74%
    12:00 +5°C° 0 mm 7 mps 762 mmHg 74%
    13:00 +8°C° 0 mm 6 mps 762 mmHg 75%
    14:00 +7°C° 0 mm 6 mps 763 mmHg 76%
    15:00 +6°C° 0 mm 7 mps 763 mmHg 77%
    16:00 +5°C° 0 mm 7 mps 763 mmHg 78%
    17:00 +4°C° 0 mm 7 mps 764 mmHg 78%
    18:00 +3°C° 0 mm 6 mps 764 mmHg 78%
    19:00 +3°C° 0 mm 6 mps 765 mmHg 78%
    20:00 +2°C° 0 mm 6 mps 765 mmHg 78%
    21:00 +2°C° 0 mm 5 mps 765 mmHg 77%
    22:00 +2°C° 0 mm 5 mps 765 mmHg 77%
    23:00 +2°C° 0 mm 5 mps 765 mmHg 77%

    Tomorrow, 19 December, Wednesday

    Time Temperature Precipitation Wind Pressure Humidity
    00:00 +2°C° 0 mm 5 mps 766 mmHg 77%
    01:00 +1°C° 0 mm 5 mps 766 mmHg 78%
    02:00 +1°C° 0 mm 5 mps 766 mmHg 77%
    03:00 +1°C° 0 mm 5 mps 766 mmHg 77%
    04:00 0°C° 0 mm 5 mps 766 mmHg 77%
    05:00 0°C° 0 mm 5 mps 766 mmHg 76%
    06:00 0°C° 0 mm 4 mps 767 mmHg 76%
    07:00 0°C° 0 mm 4 mps 767 mmHg 76%
    08:00 +3°C° 0 mm 4 mps 767 mmHg 74%
    09:00 +4°C° 0 mm 3 mps 767 mmHg 72%
    10:00 +7°C° 0 mm 3 mps 767 mmHg 70%
    11:00 +8°C° 0 mm 3 mps 767 mmHg 69%
    12:00 +8°C° 0 mm 3 mps 767 mmHg 68%
    13:00 +9°C° 0 mm 3 mps 767 mmHg 68%
    14:00 +9°C° 0 mm 3 mps 767 mmHg 70%
    15:00 +8°C° 0 mm 3 mps 767 mmHg 73%
    16:00 +7°C° 0 mm 2 mps 767 mmHg 76%
    17:00 +6°C° 0 mm 2 mps 767 mmHg 77%
    18:00 +6°C° 0 mm 2 mps 767 mmHg 77%
    19:00 +5°C° 0 mm 2 mps 768 mmHg 77%
    20:00 +5°C° 0 mm 2 mps 768 mmHg 76%
    21:00 +5°C° 0 mm 2 mps 768 mmHg 75%
    22:00 +4°C° 0 mm 2 mps 768 mmHg 73%
    23:00 +4°C° 0 mm 2 mps 768 mmHg 72%

    Day after tomorrow, 20 December, Thursday

    Time Temperature Precipitation Wind Pressure Humidity
    00:00 +3°C° 0 mm 3 mps 768 mmHg 71%
    01:00 +3°C° 0 mm 3 mps 768 mmHg 70%
    02:00 +4°C° 0 mm 3 mps 768 mmHg 69%
    03:00 +4°C° 0 mm 3 mps 768 mmHg 69%
    04:00 +4°C° 0 mm 3 mps 767 mmHg 68%
    05:00 +4°C° 0 mm 3 mps 768 mmHg 68%
    06:00 +4°C° 0 mm 4 mps 768 mmHg 67%
    07:00 +4°C° 0 mm 4 mps 768 mmHg 67%
    08:00 +5°C° 0 mm 4 mps 768 mmHg 66%
    09:00 +7°C° 0 mm 4 mps 768 mmHg 65%
    10:00 +10°C° 0 mm 4 mps 768 mmHg 64%
    11:00 +10°C° 0 mm 4 mps 768 mmHg 63%
    12:00 +10°C° 0 mm 5 mps 767 mmHg 62%
    13:00 +10°C° 0 mm 5 mps 767 mmHg 61%
    14:00 +10°C° 0 mm 5 mps 767 mmHg 64%
    15:00 +9°C° 0 mm 5 mps 767 mmHg 67%
    16:00 +8°C° 0 mm 5 mps 767 mmHg 70%
    17:00 +7°C° 0 mm 5 mps 767 mmHg 69%
    18:00 +7°C° 0 mm 5 mps 768 mmHg 69%
    19:00 +5°C° 0 mm 6 mps 768 mmHg 68%
    20:00 +6°C° 0 mm 5 mps 768 mmHg 69%
    21:00 +6°C° 0 mm 5 mps 768 mmHg 69%
    22:00 +6°C° 0 mm 5 mps 768 mmHg 70%
    23:00 +6°C° 0 mm 5 mps 768 mmHg 70%

    21 December, Friday

    Time Temperature Precipitation Wind Pressure Humidity
    00:00 +6°C° 0 mm 5 mps 768 mmHg 71%
    01:00 +6°C° 0 mm 5 mps 768 mmHg 71%
    02:00 +6°C° 0.2 mm 5 mps 768 mmHg 72%
    03:00 +7°C° 0.2 mm 4 mps 768 mmHg 73%
    04:00 +7°C° 0.2 mm 4 mps 768 mmHg 75%
    05:00 +7°C° 0.2 mm 4 mps 768 mmHg 76%
    06:00 +8°C° 0.2 mm 3 mps 768 mmHg 77%
    07:00 +8°C° 0.2 mm 3 mps 769 mmHg 78%
    08:00 +9°C° 0.1 mm 3 mps 769 mmHg 77%
    09:00 +10°C° 0.1 mm 3 mps 769 mmHg 77%
    10:00 +12°C° 0.1 mm 2 mps 769 mmHg 76%
    11:00 +13°C° 0.1 mm 2 mps 769 mmHg 75%
    12:00 +13°C° 0.1 mm 2 mps 769 mmHg 74%
    13:00 +14°C° 0.1 mm 2 mps 768 mmHg 74%
    14:00 +13°C° 0 mm 2 mps 769 mmHg 76%
    15:00 +12°C° 0 mm 2 mps 769 mmHg 79%
    16:00 +12°C° 0 mm 2 mps 769 mmHg 82%
    17:00 +10°C° 0 mm 2 mps 769 mmHg 82%
    18:00 +11°C° 0 mm 1 mps 769 mmHg 83%
    19:00 +10°C° 0 mm 1 mps 769 mmHg 84%
    20:00 +9°C° 0 mm 2 mps 769 mmHg 84%
    21:00 +9°C° 0 mm 2 mps 770 mmHg 85%
    22:00 +9°C° 0 mm 2 mps 770 mmHg 85%
    23:00 +8°C° 0 mm 2 mps 770 mmHg 86%

    22 December, Saturday

    Time Temperature Precipitation Wind Pressure Humidity
    00:00 +8°C° 0 mm 2 mps 769 mmHg 86%
    01:00 +8°C° 0 mm 2 mps 769 mmHg 86%
    02:00 +8°C° 0 mm 2 mps 769 mmHg 87%
    03:00 +8°C° 0 mm 2 mps 769 mmHg 87%
    04:00 +8°C° 0 mm 2 mps 769 mmHg 88%
    05:00 +8°C° 0 mm 2 mps 769 mmHg 87%
    06:00 +8°C° 0 mm 2 mps 769 mmHg 87%
    07:00 +8°C° 0 mm 2 mps 769 mmHg 86%
    08:00 +9°C° 0 mm 2 mps 769 mmHg 84%
    09:00 +10°C° 0 mm 2 mps 769 mmHg 81%
    10:00 +13°C° 0 mm 2 mps 769 mmHg 78%
    11:00 +13°C° 0 mm 2 mps 769 mmHg 78%
    12:00 +13°C° 0 mm 3 mps 768 mmHg 77%
    13:00 +13°C° 0 mm 3 mps 768 mmHg 77%
    14:00 +12°C° 0 mm 3 mps 768 mmHg 80%
    15:00 +13°C° 0 mm 2 mps 767 mmHg 82%
    16:00 +12°C° 0 mm 2 mps 767 mmHg 85%
    17:00 +12°C° 0 mm 2 mps 768 mmHg 86%
    18:00 +10°C° 0 mm 2 mps 768 mmHg 87%
    19:00 +10°C° 0 mm 2 mps 768 mmHg 88%
    20:00 +9°C° 0 mm 2 mps 768 mmHg 87%
    21:00 +9°C° 0 mm 2 mps 768 mmHg 87%
    22:00 +9°C° 0 mm 2 mps 768 mmHg 86%
    23:00 +9°C° 0 mm 2 mps 768 mmHg 86%

    23 December, Sunday

    Time Temperature Precipitation Wind Pressure Humidity
    00:00 +9°C° 0 mm 2 mps 767 mmHg 85%
    01:00 +9°C° 0 mm 3 mps 767 mmHg 85%
    02:00 +9°C° 0 mm 2 mps 767 mmHg 85%
    03:00 +9°C° 0 mm 2 mps 767 mmHg 85%
    04:00 +9°C° 0 mm 2 mps 767 mmHg 85%
    05:00 +9°C° 0 mm 2 mps 767 mmHg 85%
    06:00 +9°C° 0 mm 2 mps 767 mmHg 85%
    07:00 +8°C° 0 mm 2 mps 767 mmHg 86%
    08:00 +10°C° 0 mm 2 mps 768 mmHg 82%
    09:00 +12°C° 0 mm 2 mps 768 mmHg 78%
    10:00 +13°C° 0 mm 2 mps 768 mmHg 75%
    11:00 +14°C° 0 mm 2 mps 768 mmHg 74%
    12:00 +15°C° 0 mm 1 mps 767 mmHg 72%
    13:00 +15°C° 0 mm 1 mps 767 mmHg 71%
    14:00 +14°C° 0 mm 1 mps 767 mmHg 75%
    15:00 +14°C° 0 mm 1 mps 767 mmHg 80%
    16:00 +13°C° 0 mm 1 mps 767 mmHg 84%
    17:00 +12°C° 0 mm 1 mps 767 mmHg 85%
    18:00 +12°C° 0 mm 1 mps 767 mmHg 85%
    19:00 +11°C° 0 mm 1 mps 768 mmHg 86%
    20:00 +11°C° 0 mm 1 mps 768 mmHg 85%
    21:00 +11°C° 0 mm 1 mps 768 mmHg 83%
    22:00 +10°C° 0 mm 2 mps 768 mmHg 82%
    23:00 +9°C° 0 mm 2 mps 768 mmHg 81%
    Show more